Location: Unspecified
(43.4354°N, 0.0000°E)
Time: 17:40:55
(UTC+00:00)

A-11 Canister half - Pass Details

Date: 28 June 2019
Orbit: 1514 x 1686 km, 47.2° (Epoch: 24 August)

Event Time Altitude Azimuth Distance (km) Brightness Sun altitude
Rises 07:05:39 0° 197° (SSW) 4,926 11.4 26.8°
Reaches altitude 10° 07:09:22 10° 186° (S) 3,937 11.1 27.5°
Maximum altitude 07:17:37 30° 131° (SE) 2,677 11.2 29.0°
Drops below altitude 10° 07:25:43 10° 76° (ENE) 3,877 12.7 30.4°
Sets 07:29:19 0° 66° (ENE) 4,842 12.6 31.1°
